Location: Bishop�s Knoyle
(51.0728°N, 2.1714°W)
Time: 02:38:34
(UTC+00:00)

Nauka - Pass Details

Date: 03 October 2021
Orbit: 417 x 423 km, 51.6° (Epoch: 26 October)

Event Time Altitude Azimuth Distance (km) Brightness Sun altitude
Rises 19:53:49 0° 279° (W) 2,367 ? -21.3°
Reaches altitude 10° 19:56:53 10° 249° (WSW) 1,499 ? -21.7°
Maximum altitude 19:58:21 12° 222° (SW) 1,359 ? -21.9°
Enters shadow 19:59:03 12° 209° (SSW) 1,390 ? -22.0°
